,,Stat5,,Stat1,,Stat2,,Stat3,,Stat4,,Wind1,,Wind1,
time,status,PA1M_AVG,status,PR1M_SUM,status,RH1M_AVG,status,SR1M_AVG,status,TA1M_AVG,status,W1dAve1m,status,W1sAve1m,
2000-09-07, 00:00:00,VALID,917.59,VALID,0,VALID,94.5413,VALID,0,VALID,19.3401,VALID,195,VALID,0.390414,
2000-09-07, 00:01:00,VALID,917.561,VALID,0,VALID,94.7078,VALID,-0.0339617,VALID,19.3019,VALID,184,VALID,0.0676398,
2000-09-07, 00:02:00,VALID,917.53,VALID,0,VALID,94.7371,VALID,-0.0339617,VALID,19.2633,VALID,145,VALID,0.851151,
2000-09-07, 00:03:00,VALID,917.484,VALID,0,VALID,94.5718,VALID,0,VALID,19.2733,VALID,117,VALID,0.760817,
2000-09-07, 00:04:00,VALID,917.474,VALID,0,VALID,94.7244,VALID,-0.0339617,VALID,19.2956,VALID,150,VALID,1.09725,
2000-09-07, 00:05:00,VALID,917.46,VALID,0,VALID,94.1916,VALID,-0.0509425,VALID,19.3764,VALID,134,VALID,1.57517,
2000-09-07, 00:06:00,VALID,917.455,VALID,0,VALID,92.7686,VALID,-0.0169808,VALID,19.5347,VALID,156,VALID,1.38186,
2000-09-07, 00:07:00,VALID,917.444,VALID,0,VALID,92.7318,VALID,-0.0339617,VALID,19.5933,VALID,189,VALID,1.09551,
2000-09-07, 00:08:00,VALID,917.469,VALID,0,VALID,93.1043,VALID,0,VALID,19.5156,VALID,190,VALID,0.718349,
2000-09-07, 00:09:00,VALID,917.449,VALID,0,VALID,93.6944,VALID,-0.0509425,VALID,19.438,VALID,157,VALID,0.414732,
2000-09-07, 00:10:00,VALID,917.451,VALID,0,VALID,93.5532,VALID,-0.0679233,VALID,19.3739,VALID,100,VALID,0.53457,
2000-09-07, 00:11:00,VALID,917.452,VALID,0,VALID,93.4629,VALID,-0.0679233,VALID,19.3242,VALID,160,VALID,1.25065,
2000-09-07, 00:12:00,VALID,917.521,VALID,0,VALID,94.0987,VALID,-0.0509425,VALID,19.2571,VALID,202,VALID,1.10851,
2000-09-07, 00:13:00,VALID,917.509,VALID,0,VALID,94.8935,VALID,-0.0679233,VALID,19.202,VALID,230,VALID,0.292268,
2000-09-07, 00:14:00,VALID,917.479,VALID,0,VALID,94.7282,VALID,-0.0339617,VALID,19.2248,VALID,231,VALID,0.0193257,
2000-09-07, 00:15:00,VALID,917.492,VALID,0,VALID,94.4128,VALID,-0.0509425,VALID,19.2571,VALID,153,VALID,0.199013,
2000-09-07, 00:16:00,VALID,917.492,VALID,0,VALID,93.1056,VALID,-0.0339617,VALID,19.2251,VALID,104,VALID,0.518159,
2000-09-07, 00:17:00,VALID,917.494,VALID,0,VALID,93.5532,VALID,-0.0509425,VALID,19.1344,VALID,87,VALID,0.557075,
2000-09-07, 00:18:00,VALID,917.491,VALID,0,VALID,93.6257,VALID,-0.0509425,VALID,19.1602,VALID,231,VALID,0.645481,
2000-09-07, 00:19:00,VALID,917.487,VALID,0,VALID,93.9767,VALID,-0.0169808,VALID,19.1348,VALID,223,VALID,0.896176,
2000-09-07, 00:20:00,VALID,917.509,VALID,0,VALID,93.9805,VALID,-0.0509425,VALID,19.1021,VALID,146,VALID,0.459736,
2000-09-07, 00:21:00,VALID,917.52,VALID,0,VALID,93.6778,VALID,-0.0509425,VALID,19.1249,VALID,133,VALID,0.622196,
2000-09-07, 00:22:00,VALID,917.511,VALID,0,VALID,93.0776,VALID,-0.0169808,VALID,19.2477,VALID,152,VALID,0.641892,
2000-09-07, 00:23:00,VALID,917.507,VALID,0,VALID,92.1773,VALID,-0.0509425,VALID,19.3866,VALID,156,VALID,0.340255,
2000-09-07, 00:24:00,VALID,917.49,VALID,0,VALID,91.4131,VALID,-0.0169808,VALID,19.5126,VALID,167,VALID,0.184896,
2000-09-07, 00:25:00,VALID,917.485,VALID,0,VALID,90.9833,VALID,-0.0339617,VALID,19.5349,VALID,249,VALID,0.48758,
2000-09-07, 00:26:00,VALID,917.47,VALID,0,VALID,90.9108,VALID,-0.0679233,VALID,19.4972,VALID,232,VALID,0.214384,
2000-09-07, 00:27:00,VALID,917.459,VALID,0,VALID,90.64,VALID,-0.0509425,VALID,19.3965,VALID,144,VALID,0.0119243,
2000-09-07, 00:28:00,VALID,917.446,VALID,0,VALID,92.2892,VALID,-0.0679233,VALID,19.2638,VALID,179,VALID,0,
2000-09-07, 00:29:00,VALID,917.439,VALID,0,VALID,93.0967,VALID,-0.0679233,VALID,19.2223,VALID,194,VALID,0,
2000-09-07, 00:30:00,VALID,917.446,VALID,0,VALID,92.9428,VALID,-0.101885,VALID,19.2059,VALID,179,VALID,0,
2000-09-07, 00:31:00,VALID,917.447,VALID,0,VALID,92.5906,VALID,-0.101885,VALID,19.2655,VALID,159,VALID,0,
2000-09-07, 00:32:00,VALID,917.469,VALID,0,VALID,91.8518,VALID,-0.101885,VALID,19.3229,VALID,223,VALID,0.851985,
2000-09-07, 00:33:00,VALID,917.469,VALID,0,VALID,91.7234,VALID,-0.0679233,VALID,19.3453,VALID,212,VALID,0.990402,
2000-09-07, 00:34:00,VALID,917.472,VALID,0,VALID,90.79,VALID,-0.0509425,VALID,19.4748,VALID,183,VALID,0.845982,
2000-09-07, 00:35:00,VALID,917.493,VALID,0,VALID,90.0843,VALID,-0.0849042,VALID,19.6358,VALID,169,VALID,0.668586,
2000-09-07, 00:36:00,VALID,917.48,VALID,0,VALID,89.2323,VALID,-0.0679233,VALID,19.7753,VALID,154,VALID,0.572917,
2000-09-07, 00:37:00,VALID,917.468,VALID,0,VALID,89.1344,VALID,-0.0849042,VALID,19.8078,VALID,134,VALID,1.09004,
2000-09-07, 00:38:00,VALID,917.454,VALID,0,VALID,88.8432,VALID,-0.0339617,VALID,19.82,VALID,178,VALID,0.885691,
2000-09-07, 00:39:00,VALID,917.431,VALID,0,VALID,88.4554,VALID,0.0339617,VALID,19.8486,VALID,155,VALID,0.862542,
2000-09-07, 00:40:00,VALID,917.409,VALID,0,VALID,88.6003,VALID,0.0339617,VALID,19.8444,VALID,140,VALID,0.760617,
2000-09-07, 00:41:00,VALID,917.389,VALID,0,VALID,88.8597,VALID,0.0339617,VALID,19.8287,VALID,129,VALID,0.600761,
2000-09-07, 00:42:00,VALID,917.371,VALID,0,VALID,89.0746,VALID,0.0339617,VALID,19.8031,VALID,160,VALID,0.990986,
2000-09-07, 00:43:00,VALID,917.351,VALID,0,VALID,88.3549,VALID,0,VALID,19.9067,VALID,185,VALID,1.06987,
2000-09-07, 00:44:00,VALID,917.324,VALID,0,VALID,87.2181,VALID,-0.0509425,VALID,20.0788,VALID,176,VALID,1.13926,
2000-09-07, 00:45:00,VALID,917.298,VALID,0,VALID,85.4353,VALID,-0.101885,VALID,20.3181,VALID,161,VALID,1.9809,
2000-09-07, 00:46:00,VALID,917.292,VALID,0,VALID,84.7575,VALID,-0.101885,VALID,20.5479,VALID,135,VALID,1.36675,
2000-09-07, 00:47:00,VALID,917.266,VALID,0,VALID,84.2438,VALID,-0.101885,VALID,20.6642,VALID,128,VALID,0.865921,
2000-09-07, 00:48:00,VALID,917.277,VALID,0,VALID,84.5007,VALID,-0.0849042,VALID,20.6709,VALID,163,VALID,0.612664,
2000-09-07, 00:49:00,VALID,917.278,VALID,0,VALID,85.2102,VALID,-0.101885,VALID,20.5963,VALID,169,VALID,0.696791,
2000-09-07, 00:50:00,VALID,917.246,VALID,0,VALID,85.4658,VALID,-0.0679233,VALID,20.5508,VALID,148,VALID,0.67462,
2000-09-07, 00:51:00,VALID,917.255,VALID,0,VALID,85.0589,VALID,-0.101885,VALID,20.477,VALID,144,VALID,0.567634,
2000-09-07, 00:52:00,VALID,917.271,VALID,0,VALID,86.7463,VALID,-0.0849042,VALID,20.2339,VALID,129,VALID,0.953125,
2000-09-07, 00:53:00,VALID,917.274,VALID,0,VALID,87.522,VALID,-0.0679233,VALID,20.1175,VALID,170,VALID,0.998733,
2000-09-07, 00:54:00,VALID,917.279,VALID,0,VALID,87.0922,VALID,-0.101885,VALID,20.173,VALID,182,VALID,0.958079,
2000-09-07, 00:55:00,VALID,917.262,VALID,0,VALID,86.3509,VALID,-0.0849042,VALID,20.2759,VALID,171,VALID,0.833398,
2000-09-07, 00:56:00,VALID,917.25,VALID,0,VALID,85.7532,VALID,-0.0849042,VALID,20.4243,VALID,182,VALID,1.09601,
2000-09-07, 00:57:00,VALID,917.228,VALID,0,VALID,85.1301,VALID,-0.101885,VALID,20.5729,VALID,171,VALID,1.06147,
2000-09-07, 00:58:00,VALID,917.209,VALID,0,VALID,84.2972,VALID,-0.0679233,VALID,20.6761,VALID,156,VALID,0.779883,
2000-09-07, 00:59:00,VALID,917.197,VALID,0,VALID,84.7156,VALID,-0.0849042,VALID,20.5376,VALID,121,VALID,0.78105,
2000-09-07, 01:00:00,VALID,917.167,VALID,0,VALID,87.1977,VALID,-0.101885,VALID,20.2339,VALID,136,VALID,0.910045,
2000-09-07, 01:01:00,VALID,917.155,VALID,0,VALID,88.0815,VALID,-0.0849042,VALID,20.124,VALID,138,VALID,0.555664,
2000-09-07, 01:02:00,VALID,917.138,VALID,0,VALID,88.0078,VALID,-0.101885,VALID,20.0979,VALID,166,VALID,0.761502,
2000-09-07, 01:03:00,VALID,917.122,VALID,0,VALID,87.063,VALID,-0.0849042,VALID,20.1794,VALID,181,VALID,1.06554,
2000-09-07, 01:04:00,VALID,917.094,VALID,0,VALID,85.4328,VALID,-0.101885,VALID,20.2953,VALID,113,VALID,0.832933,
2000-09-07, 01:05:00,VALID,917.087,VALID,0,VALID,85.9109,VALID,-0.101885,VALID,20.169,VALID,112,VALID,0.980674,
2000-09-07, 01:06:00,VALID,917.088,VALID,0,VALID,88.3193,VALID,-0.0849042,VALID,19.9778,VALID,129,VALID,0.933388,
2000-09-07, 01:07:00,VALID,917.076,VALID,0,VALID,88.0548,VALID,-0.0679233,VALID,19.9942,VALID,158,VALID,0.710726,
2000-09-07, 01:08:00,VALID,917.063,VALID,0,VALID,87.2931,VALID,-0.0849042,VALID,20.1165,VALID,161,VALID,0.906467,
2000-09-07, 01:09:00,VALID,917.048,VALID,0,VALID,86.1131,VALID,-0.0679233,VALID,20.2562,VALID,127,VALID,1.15984,
2000-09-07, 01:10:00,VALID,917.029,VALID,0,VALID,86.8824,VALID,-0.0679233,VALID,20.1553,VALID,142,VALID,0.640214,
2000-09-07, 01:11:00,VALID,917.004,VALID,0,VALID,87.9912,VALID,-0.0679233,VALID,20.0392,VALID,152,VALID,1.16767,
2000-09-07, 01:12:00,VALID,916.987,VALID,0,VALID,88.4604,VALID,-0.0509425,VALID,19.991,VALID,182,VALID,1.09796,
2000-09-07, 01:13:00,VALID,916.938,VALID,0,VALID,86.7565,VALID,-0.0509425,VALID,20.1073,VALID,160,VALID,1.6856,
2000-09-07, 01:14:00,VALID,916.898,VALID,0,VALID,85.4429,VALID,-0.0339617,VALID,20.3201,VALID,137,VALID,1.90173,
2000-09-07, 01:15:00,VALID,916.88,VALID,0,VALID,84.9483,VALID,0,VALID,20.5398,VALID,148,VALID,2.13281,
2000-09-07, 01:16:00,VALID,916.871,VALID,0,VALID,84.7588,VALID,-0.0339617,VALID,20.6047,VALID,131,VALID,1.03926,
2000-09-07, 01:17:00,VALID,916.845,VALID,0,VALID,85.0233,VALID,0,VALID,20.553,VALID,146,VALID,1.88534,
2000-09-07, 01:18:00,VALID,916.805,VALID,0,VALID,84.1866,VALID,-0.0169808,VALID,20.7111,VALID,125,VALID,1.83573,
2000-09-07, 01:19:00,VALID,916.762,VALID,0,VALID,83.5037,VALID,-0.0169808,VALID,20.8506,VALID,144,VALID,0.95228,
2000-09-07, 01:20:00,VALID,916.739,VALID,0,VALID,83.4974,VALID,-0.0169808,VALID,20.9088,VALID,145,VALID,1.56641,
2000-09-07, 01:21:00,VALID,916.737,VALID,0,VALID,83.5139,VALID,-0.0169808,VALID,20.9312,VALID,173,VALID,1.23242,
2000-09-07, 01:22:00,VALID,916.738,VALID,0,VALID,83.6601,VALID,-0.0339617,VALID,20.9573,VALID,189,VALID,0.853413,
2000-09-07, 01:23:00,VALID,916.738,VALID,0,VALID,83.9602,VALID,-0.0339617,VALID,20.9185,VALID,178,VALID,1.20376,
2000-09-07, 01:24:00,VALID,916.745,VALID,0,VALID,84.081,VALID,-0.0169808,VALID,20.8566,VALID,180,VALID,1.20826,
2000-09-07, 01:25:00,VALID,916.729,VALID,0,VALID,84.4384,VALID,-0.0339617,VALID,20.821,VALID,154,VALID,1.27143,
2000-09-07, 01:26:00,VALID,916.729,VALID,0,VALID,84.5401,VALID,0,VALID,20.7787,VALID,168,VALID,1.31887,
2000-09-07, 01:27:00,VALID,916.711,VALID,0,VALID,84.4384,VALID,-0.0169808,VALID,20.7825,VALID,123,VALID,1.67027,
2000-09-07, 01:28:00,VALID,916.707,VALID,0,VALID,84.5999,VALID,0,VALID,20.7725,VALID,112,VALID,1.24863,
2000-09-07, 01:29:00,VALID,916.674,VALID,0,VALID,84.8275,VALID,-0.0169808,VALID,20.7432,VALID,158,VALID,0.859375,
2000-09-07, 01:30:00,VALID,916.679,VALID,0,VALID,84.9826,VALID,-0.0169808,VALID,20.6847,VALID,149,VALID,0.799198,
2000-09-07, 01:31:00,VALID,916.664,VALID,0,VALID,85.0297,VALID,-0.0169808,VALID,20.5716,VALID,129,VALID,1.43389,
2000-09-07, 01:32:00,VALID,916.678,VALID,0,VALID,84.7677,VALID,-0.0169808,VALID,20.546,VALID,155,VALID,2.72576,
2000-09-07, 01:33:00,VALID,916.656,VALID,0,VALID,84.1815,VALID,0,VALID,20.7111,VALID,130,VALID,2.00521,
2000-09-07, 01:34:00,VALID,916.652,VALID,0,VALID,84.0175,VALID,0,VALID,20.8111,VALID,151,VALID,1.34152,
2000-09-07, 01:35:00,VALID,916.649,VALID,0,VALID,84.1332,VALID,0,VALID,20.8369,VALID,179,VALID,1.23984,
2000-09-07, 01:36:00,VALID,916.63,VALID,0,VALID,84.343,VALID,0,VALID,20.8558,VALID,188,VALID,1.01953,
2000-09-07, 01:37:00,VALID,916.63,VALID,0,VALID,84.6329,VALID,-0.0339617,VALID,20.8235,VALID,178,VALID,1.19314,
2000-09-07, 01:38:00,VALID,916.606,VALID,0,VALID,84.3888,VALID,0,VALID,20.7914,VALID,172,VALID,1.22741,
2000-09-07, 01:39:00,VALID,916.598,VALID,0,VALID,84.6418,VALID,0,VALID,20.772,VALID,174,VALID,1.1028,
2000-09-07, 01:40:00,VALID,916.579,VALID,0,VALID,84.8707,VALID,0,VALID,20.7429,VALID,170,VALID,1.2709,
2000-09-07, 01:41:00,VALID,916.559,VALID,0,VALID,85.0932,VALID,-0.0339617,VALID,20.7044,VALID,184,VALID,1.13471,
2000-09-07, 01:42:00,VALID,916.546,VALID,0,VALID,85.1543,VALID,-0.0169808,VALID,20.6788,VALID,186,VALID,1.12857,
2000-09-07, 01:43:00,VALID,916.521,VALID,0,VALID,85.2992,VALID,-0.0169808,VALID,20.6495,VALID,152,VALID,0.939967,
2000-09-07, 01:44:00,VALID,916.518,VALID,0,VALID,85.5447,VALID,-0.0169808,VALID,20.5945,VALID,179,VALID,1.44573,
2000-09-07, 01:45:00,VALID,916.496,VALID,0,VALID,85.1759,VALID,0,VALID,20.6293,VALID,169,VALID,1.30507,
2000-09-07, 01:46:00,VALID,916.479,VALID,0,VALID,84.9673,VALID,0,VALID,20.7171,VALID,179,VALID,1.42031,
2000-09-07, 01:47:00,VALID,916.477,VALID,0,VALID,84.5375,VALID,0,VALID,20.7747,VALID,203,VALID,1.21875,
2000-09-07, 01:48:00,VALID,916.478,VALID,0,VALID,84.6304,VALID,0.0339617,VALID,20.8299,VALID,172,VALID,0.524054,
2000-09-07, 01:49:00,VALID,916.486,VALID,0,VALID,84.6622,VALID,0,VALID,20.7849,VALID,178,VALID,1.42207,
2000-09-07, 01:50:00,VALID,916.509,VALID,0,VALID,84.3761,VALID,0,VALID,20.7882,VALID,184,VALID,1.27724,
2000-09-07, 01:51:00,VALID,916.494,VALID,0,VALID,84.0632,VALID,0,VALID,20.8498,VALID,123,VALID,1.45982,
2000-09-07, 01:52:00,VALID,916.493,VALID,0,VALID,84.0238,VALID,0,VALID,20.911,VALID,186,VALID,1.48066,
2000-09-07, 01:53:00,VALID,916.5,VALID,0,VALID,84.0594,VALID,-0.0169808,VALID,20.9105,VALID,174,VALID,1.42491,
2000-09-07, 01:54:00,VALID,916.496,VALID,0,VALID,84.2006,VALID,0,VALID,20.9008,VALID,172,VALID,0.985243,
2000-09-07, 01:55:00,VALID,916.499,VALID,0,VALID,84.4434,VALID,0,VALID,20.8749,VALID,161,VALID,0.907652,
2000-09-07, 01:56:00,VALID,916.501,VALID,0,VALID,84.7512,VALID,-0.0169808,VALID,20.7812,VALID,143,VALID,1.71813,
2000-09-07, 01:57:00,VALID,916.483,VALID,0,VALID,84.6927,VALID,0,VALID,20.7882,VALID,151,VALID,2.05633,
2000-09-07, 01:58:00,VALID,916.471,VALID,0,VALID,84.4892,VALID,0,VALID,20.8458,VALID,130,VALID,1.69468,
2000-09-07, 01:59:00,VALID,916.462,VALID,0,VALID,84.2705,VALID,-0.0339617,VALID,20.8851,VALID,148,VALID,1.77235,
2000-09-07, 02:00:00,VALID,916.439,VALID,0,VALID,84.3265,VALID,-0.0679233,VALID,20.8849,VALID,147,VALID,0.864865,
2000-09-07, 02:01:00,VALID,916.432,VALID,0,VALID,84.3824,VALID,-0.0849042,VALID,20.8428,VALID,136,VALID,1.44367,
2000-09-07, 02:02:00,VALID,916.412,VALID,0,VALID,84.3608,VALID,-0.0509425,VALID,20.82,VALID,176,VALID,1.89243,
2000-09-07, 02:03:00,VALID,916.423,VALID,0,VALID,83.683,VALID,-0.0849042,VALID,20.9309,VALID,127,VALID,2.6244,
2000-09-07, 02:04:00,VALID,916.416,VALID,0,VALID,82.9671,VALID,-0.0849042,VALID,21.0631,VALID,128,VALID,2.22361,
2000-09-07, 02:05:00,VALID,916.403,VALID,0,VALID,82.8069,VALID,-0.0679233,VALID,21.1765,VALID,142,VALID,1.66591,
2000-09-07, 02:06:00,VALID,916.404,VALID,0,VALID,83.1083,VALID,-0.0849042,VALID,21.1397,VALID,151,VALID,1.86478,
2000-09-07, 02:07:00,VALID,916.398,VALID,0,VALID,83.4033,VALID,-0.0509425,VALID,21.0984,VALID,156,VALID,1.36318,
2000-09-07, 02:08:00,VALID,916.391,VALID,0,VALID,83.8432,VALID,-0.0849042,VALID,21.0273,VALID,149,VALID,1.10087,
2000-09-07, 02:09:00,VALID,916.396,VALID,0,VALID,84.067,VALID,-0.0849042,VALID,20.9465,VALID,150,VALID,2.18873,
2000-09-07, 02:10:00,VALID,916.376,VALID,0,VALID,84.0403,VALID,-0.0679233,VALID,20.9204,VALID,137,VALID,1.6326,
2000-09-07, 02:11:00,VALID,916.38,VALID,0,VALID,84.2908,VALID,-0.0849042,VALID,20.8878,VALID,145,VALID,1.48958,
2000-09-07, 02:12:00,VALID,916.386,VALID,0,VALID,84.6278,VALID,-0.0849042,VALID,20.8361,VALID,136,VALID,1.25911,
2000-09-07, 02:13:00,VALID,916.385,VALID,0,VALID,85.2128,VALID,-0.101885,VALID,20.7464,VALID,144,VALID,1.31538,
2000-09-07, 02:14:00,VALID,916.373,VALID,0,VALID,85.3666,VALID,0,VALID,20.67,VALID,141,VALID,1.28231,
2000-09-07, 02:15:00,VALID,916.365,VALID,0,VALID,85.1466,VALID,0.0169808,VALID,20.67,VALID,148,VALID,2.08817,
2000-09-07, 02:16:00,VALID,916.344,VALID,0,VALID,84.8097,VALID,0.0169808,VALID,20.7279,VALID,110,VALID,2.23795,
2000-09-07, 02:17:00,VALID,916.347,VALID,0,VALID,84.886,VALID,0.0339617,VALID,20.7435,VALID,136,VALID,1.93914,
2000-09-07, 02:18:00,VALID,916.35,VALID,0,VALID,84.6367,VALID,0.0169808,VALID,20.7535,VALID,145,VALID,2.06631,
2000-09-07, 02:19:00,VALID,916.328,VALID,0,VALID,84.3659,VALID,0.0339617,VALID,20.8092,VALID,147,VALID,1.38008,
2000-09-07, 02:20:00,VALID,916.33,VALID,0,VALID,83.9997,VALID,0.0509425,VALID,20.8378,VALID,134,VALID,1.8676,
2000-09-07, 02:21:00,VALID,916.314,VALID,0,VALID,84.0225,VALID,0.0169808,VALID,20.8639,VALID,144,VALID,1.26689,
2000-09-07, 02:22:00,VALID,916.313,VALID,0,VALID,84.2324,VALID,0.0679233,VALID,20.8219,VALID,151,VALID,1.52464,
2000-09-07, 02:23:00,VALID,916.324,VALID,0,VALID,84.1052,VALID,0.0169808,VALID,20.809,VALID,154,VALID,1.66226,
2000-09-07, 02:24:00,VALID,916.302,VALID,0,VALID,83.903,VALID,0.0339617,VALID,20.8507,VALID,179,VALID,1.50641,
2000-09-07, 02:25:00,VALID,916.304,VALID,0,VALID,83.9844,VALID,0.0169808,VALID,20.8442,VALID,178,VALID,1.52679,
2000-09-07, 02:26:00,VALID,916.297,VALID,0,VALID,83.5826,VALID,0.0169808,VALID,20.8636,VALID,152,VALID,2.13379,
2000-09-07, 02:27:00,VALID,916.28,VALID,0,VALID,83.4173,VALID,0.0169808,VALID,20.9417,VALID,133,VALID,1.49891,
2000-09-07, 02:28:00,VALID,916.307,VALID,0,VALID,83.4567,VALID,0.0509425,VALID,20.9576,VALID,155,VALID,2.10026,
2000-09-07, 02:29:00,VALID,916.315,VALID,0,VALID,83.4923,VALID,-0.0339617,VALID,20.9622,VALID,122,VALID,1.3049,
2000-09-07, 02:30:00,VALID,916.299,VALID,0,VALID,83.6169,VALID,-0.0169808,VALID,20.9263,VALID,129,VALID,1.66201,
2000-09-07, 02:31:00,VALID,916.294,VALID,0,VALID,82.4788,VALID,-0.0339617,VALID,20.9428,VALID,152,VALID,2.18433,
2000-09-07, 02:32:00,VALID,916.284,VALID,0,VALID,82.227,VALID,-0.0679233,VALID,21.0494,VALID,122,VALID,1.42631,
2000-09-07, 02:33:00,VALID,916.296,VALID,0,VALID,82.4407,VALID,-0.0849042,VALID,21.0715,VALID,133,VALID,1.85,
2000-09-07, 02:34:00,VALID,916.322,VALID,0,VALID,82.6225,VALID,-0.0849042,VALID,21.0591,VALID,121,VALID,2.04605,
2000-09-07, 02:35:00,VALID,916.286,VALID,0,VALID,82.8717,VALID,-0.0679233,VALID,21.0298,VALID,155,VALID,0.919341,
2000-09-07, 02:36:00,VALID,916.288,VALID,0,VALID,82.7382,VALID,-0.0679233,VALID,20.9945,VALID,167,VALID,1.19684,
2000-09-07, 02:37:00,VALID,916.292,VALID,0,VALID,82.7446,VALID,-0.0169808,VALID,21.0077,VALID,138,VALID,2.25898,
2000-09-07, 02:38:00,VALID,916.277,VALID,0,VALID,82.6696,VALID,-0.0509425,VALID,20.9942,VALID,148,VALID,1.56188,
2000-09-07, 02:39:00,VALID,916.285,VALID,0,VALID,82.8412,VALID,-0.0849042,VALID,20.9915,VALID,130,VALID,1.16879,
2000-09-07, 02:40:00,VALID,916.257,VALID,0,VALID,83.0523,VALID,-0.0339617,VALID,20.9199,VALID,121,VALID,1.11523,
2000-09-07, 02:41:00,VALID,916.211,VALID,0,VALID,82.976,VALID,-0.0339617,VALID,20.8585,VALID,155,VALID,1.31571,
2000-09-07, 02:42:00,VALID,916.206,VALID,0,VALID,83.2062,VALID,-0.0849042,VALID,20.8488,VALID,146,VALID,0.695982,
2000-09-07, 02:43:00,VALID,916.196,VALID,0,VALID,83.9793,VALID,-0.0509425,VALID,20.7518,VALID,132,VALID,0.627344,
2000-09-07, 02:44:00,VALID,916.204,VALID,0,VALID,84.8173,VALID,-0.0849042,VALID,20.6131,VALID,133,VALID,0.682292,
2000-09-07, 02:45:00,VALID,916.2,VALID,0,VALID,85.579,VALID,-0.0509425,VALID,20.4454,VALID,112,VALID,0.502604,
2000-09-07, 02:46:00,VALID,916.194,VALID,0,VALID,85.7977,VALID,-0.0679233,VALID,20.3357,VALID,134,VALID,1.96655,
2000-09-07, 02:47:00,VALID,916.227,VALID,0,VALID,85.2649,VALID,-0.101885,VALID,20.3772,VALID,151,VALID,1.67516,
2000-09-07, 02:48:00,VALID,916.209,VALID,0,VALID,84.596,VALID,-0.0509425,VALID,20.426,VALID,135,VALID,1.35444,
2000-09-07, 02:49:00,VALID,916.174,VALID,0,VALID,84.7423,VALID,-0.0679233,VALID,20.4998,VALID,136,VALID,0.978252,
2000-09-07, 02:50:00,VALID,916.164,VALID,0,VALID,84.371,VALID,-0.101885,VALID,20.5488,VALID,123,VALID,1.19184,
2000-09-07, 02:51:00,VALID,916.129,VALID,0,VALID,83.3778,VALID,-0.0849042,VALID,20.6398,VALID,125,VALID,1.4375,
2000-09-07, 02:52:00,VALID,916.128,VALID,0,VALID,83.0498,VALID,-0.0849042,VALID,20.7332,VALID,173,VALID,1.2683,
2000-09-07, 02:53:00,VALID,916.124,VALID,0,VALID,82.8094,VALID,-0.101885,VALID,20.7946,VALID,174,VALID,0.428486,
2000-09-07, 02:54:00,VALID,916.111,VALID,0,VALID,83.1591,VALID,-0.101885,VALID,20.772,VALID,112,VALID,1.49319,
2000-09-07, 02:55:00,VALID,916.135,VALID,0,VALID,83.4974,VALID,-0.101885,VALID,20.685,VALID,155,VALID,1.34945,
2000-09-07, 02:56:00,VALID,916.12,VALID,0,VALID,83.107,VALID,-0.101885,VALID,20.7434,VALID,198,VALID,1.06867,
2000-09-07, 02:57:00,VALID,916.107,VALID,0,VALID,83.1884,VALID,-0.101885,VALID,20.7715,VALID,173,VALID,1.21014,
2000-09-07, 02:58:00,VALID,916.128,VALID,0,VALID,83.6449,VALID,-0.0679233,VALID,20.733,VALID,204,VALID,1.19651,
2000-09-07, 02:59:00,VALID,916.119,VALID,0,VALID,83.9323,VALID,-0.0849042,VALID,20.7074,VALID,215,VALID,1.38097,
2000-09-07, 03:00:00,VALID,916.118,VALID,0,VALID,84.1535,VALID,-0.101885,VALID,20.6785,VALID,205,VALID,1.0956,
2000-09-07, 03:01:00,VALID,916.118,VALID,0,VALID,84.3519,VALID,-0.101885,VALID,20.6395,VALID,154,VALID,1.01563,
2000-09-07, 03:02:00,VALID,916.116,VALID,0,VALID,84.4829,VALID,-0.118866,VALID,20.5784,VALID,191,VALID,1.35482,
2000-09-07, 03:03:00,VALID,916.131,VALID,0,VALID,83.9768,VALID,-0.101885,VALID,20.633,VALID,217,VALID,1.73459,
2000-09-07, 03:04:00,VALID,916.109,VALID,0,VALID,83.7886,VALID,-0.118866,VALID,20.7074,VALID,209,VALID,1.44901,
2000-09-07, 03:05:00,VALID,916.127,VALID,0,VALID,83.6601,VALID,-0.101885,VALID,20.73,VALID,172,VALID,1.54962,
2000-09-07, 03:06:00,VALID,916.121,VALID,0,VALID,83.3715,VALID,-0.118866,VALID,20.7558,VALID,169,VALID,1.15379,
2000-09-07, 03:07:00,VALID,916.101,VALID,0,VALID,83.4109,VALID,-0.118866,VALID,20.7685,VALID,220,VALID,1.16942,
2000-09-07, 03:08:00,VALID,916.091,VALID,0,VALID,83.346,VALID,-0.101885,VALID,20.7683,VALID,204,VALID,1.24548,
2000-09-07, 03:09:00,VALID,916.101,VALID,0,VALID,83.5838,VALID,-0.0849042,VALID,20.7434,VALID,158,VALID,1.09816,
2000-09-07, 03:10:00,VALID,916.098,VALID,0,VALID,83.8064,VALID,-0.118866,VALID,20.6974,VALID,170,VALID,1.48398,
2000-09-07, 03:11:00,VALID,916.092,VALID,0,VALID,83.65,VALID,-0.101885,VALID,20.6944,VALID,136,VALID,1.14474,
2000-09-07, 03:12:00,VALID,916.083,VALID,0,VALID,84.0353,VALID,-0.101885,VALID,20.6425,VALID,188,VALID,0.946791,
2000-09-07, 03:13:00,VALID,916.063,VALID,0,VALID,84.3455,VALID,-0.101885,VALID,20.6489,VALID,209,VALID,0.603365,
2000-09-07, 03:14:00,VALID,916.058,VALID,0,VALID,84.5617,VALID,-0.0339617,VALID,20.6089,VALID,211,VALID,0.951322,
2000-09-07, 03:15:00,VALID,916.06,VALID,0,VALID,84.3964,VALID,0,VALID,20.6059,VALID,163,VALID,0.972957,
2000-09-07, 03:16:00,VALID,916.057,VALID,0,VALID,84.0658,VALID,0,VALID,20.6148,VALID,185,VALID,0.892857,
2000-09-07, 03:17:00,VALID,916.054,VALID,0,VALID,84.1459,VALID,-0.0169808,VALID,20.6148,VALID,216,VALID,0.919141,
2000-09-07, 03:18:00,VALID,916.044,VALID,0,VALID,84.0314,VALID,0,VALID,20.6059,VALID,212,VALID,1.60677,
2000-09-07, 03:19:00,VALID,916.039,VALID,0,VALID,84.0251,VALID,0,VALID,20.6253,VALID,200,VALID,1.36589,
2000-09-07, 03:20:00,VALID,916.029,VALID,0,VALID,83.9704,VALID,-0.0169808,VALID,20.6444,VALID,190,VALID,0.959882,
2000-09-07, 03:21:00,VALID,916.037,VALID,0,VALID,84.137,VALID,0,VALID,20.6442,VALID,174,VALID,1.0074,
2000-09-07, 03:22:00,VALID,916.047,VALID,0,VALID,84.2565,VALID,-0.0339617,VALID,20.6158,VALID,206,VALID,1.36402,
2000-09-07, 03:23:00,VALID,916.041,VALID,0,VALID,84.0798,VALID,-0.0169808,VALID,20.6447,VALID,214,VALID,1.51985,
2000-09-07, 03:24:00,VALID,916.038,VALID,0,VALID,84.0785,VALID,-0.0169808,VALID,20.6834,VALID,234,VALID,1.47812,
2000-09-07, 03:25:00,VALID,916.034,VALID,0,VALID,83.8369,VALID,0,VALID,20.6573,VALID,182,VALID,1.28824,
2000-09-07, 03:26:00,VALID,916.029,VALID,0,VALID,84.4282,VALID,0,VALID,20.5154,VALID,141,VALID,0.491976,
2000-09-07, 03:27:00,VALID,916.03,VALID,0,VALID,84.6545,VALID,0,VALID,20.4212,VALID,185,VALID,1.09032,
2000-09-07, 03:28:00,VALID,916.037,VALID,0,VALID,84.1192,VALID,0,VALID,20.4446,VALID,141,VALID,2.25273,
2000-09-07, 03:29:00,VALID,916.051,VALID,0,VALID,83.7199,VALID,0,VALID,20.5313,VALID,133,VALID,2.25226,
2000-09-07, 03:30:00,VALID,916.054,VALID,0,VALID,82.8654,VALID,0,VALID,20.6245,VALID,166,VALID,1.57525,
2000-09-07, 03:31:00,VALID,916.06,VALID,0,VALID,82.4216,VALID,-0.0169808,VALID,20.7058,VALID,149,VALID,1.47012,